User: anonymous   Login
Location: Chiroubles
(46.1812°N, 4.6660°E)
Time: 12:22:26
(UTC+00:00)
Language:

Resurs 1-3 - Orbit

View from above orbital plane
View from above orbital plane
View from above satellite
View from above satellite

Ground track
Ground track

The orbit data is extracted from the following two-line orbital elements,

1 23342U 94074A   20293.87230299 +.00000101 +00000-0 +20507-4 0  9994
2 23342 097.9149 340.9956 0001388 054.9239 305.2103 14.79341912397984
Epoch (UTC): 19 October 2020 20:56:06
Eccentricity: 0.0001388
inclination: 97.9149°
perigee height: 630 km
apogee height: 632 km
right ascension of ascending node: 340.9956°
argument of perigee: 54.9239°
revolutions per day: 14.79341912
mean anomaly at epoch: 305.2103°
orbit number at epoch: 39798

The dashed part of the orbit path shows where the satellite is in the earth's shadow,  

DLR